Wind_Speed
3 3 3 6 7 8 10 11 9 5 5 5 5 4 4 5 6 5 4 5 1 1 6 6 6 8 10 5 3 3 4 6 4 4 3 2 2 2 3 3 4 4 3 7 12 14 15 15 16 17 18 19 21 22 22 23 23 24 24 24 24 23 21 20 20 20 21 21 23 24 25 26 26 24 23 23 22 21 20 18 17 16 15 14 13 13
4 5 9 10 7 8 8 8 6 2 4 4 4 3 4 5 6 6 4 4 1 2 5 3 2 9 9 1 4 3 3 3 2 4 3 2 2 2 3 4 4 3 3 7 11 14 15 15 17 18 19 20 21 22 22 23 24 24 25 26 26 24 22 22 21 21 22 23 23 25 26 26 26 25 25 25 25 23 21 20 19 18 17 15 14 14
2 5 12 8 5 5 2 4 5 4 3 2 3 2 4 3 3 6 4 4 2 3 4 2 2 9 7 2 3 2 2 0 1 2 3 3 3 2 3 3 4 4 5 5 8 12 13 14 16 18 20 21 20 21 22 23 23 24 25 26 26 25 24 24 23 22 23 24 23 24 25 25 27 27 26 26 25 24 23 23 22 21 20 19 18 17
3 7 10 5 7 6 2 3 6 3 2 3 3 3 4 2 0 4 4 4 1 1 2 2 3 7 5 1 3 2 2 2 3 4 4 3 3 2 1 2 3 3 4 4 6 9 10 12 15 17 18 19 20 21 21 22 23 24 25 25 25 24 24 24 23 24 24 24 24 24 25 25 27 27 25 24 24 23 23 24 23 23 22 21 20 20
7 6 2 5 7 7 4 3 6 5 2 4 5 6 5 3 4 6 4 4 3 3 1 2 2 6 5 4 2 1 1 2 3 4 4 3 2 2 2 2 3 2 3 4 4 6 7 10 13 15 16 18 20 20 20 21 22 23 24 24 23 23 23 22 21 21 21 21 22 23 23 23 24 25 24 25 25 25 24 25 24 23 22 22 22 21
8 5 4 5 3 5 6 4 5 7 3 4 5 9 10 7 7 5 3 5 4 4 3 1 3 5 4 4 4 3 1 1 2 2 2 1 2 2 3 3 3 2 3 3 4 4 6 8 11 14 15 17 19 19 19 20 22 23 23 23 23 23 22 21 20 19 18 19 20 20 21 22 25 26 26 26 26 27 27 27 26 24 23 23 22 22
4 2 3 5 5 5 5 4 5 7 5 3 4 8 10 7 4 3 2 1 0 3 3 3 2 5 5 5 2 3 2 1 1 0 1 1 0 1 2 1 1 2 3 3 4 5 6 7 10 13 15 16 17 17 19 21 22 23 23 24 23 24 24 23 22 20 20 22 22 24 26 27 28 28 26 25 27 28 29 29 28 28 27 26 25 25
3 0 2 5 5 6 5 4 6 8 7 3 4 4 6 7 6 5 5 4 3 3 3 3 1 3 5 4 1 3 2 2 3 3 3 3 3 2 1 1 1 1 1 2 3 4 5 7 10 12 13 15 15 16 19 21 23 24 24 25 25 25 25 24 24 23 23 24 26 27 29 30 30 29 28 27 28 28 28 29 30 30 30 29 29 28
3 3 4 6 5 5 6 4 8 10 5 4 3 6 6 6 6 5 5 3 1 2 4 4 0 2 5 4 3 4 0 6 6 6 5 5 5 4 3 3 3 2 1 1 1 3 4 7 9 10 12 13 15 17 20 22 23 24 25 25 26 26 26 26 25 25 25 25 26 28 30 31 30 28 27 26 27 27 27 28 29 29 29 29 28 28
1 4 6 8 5 5 5 3 8 10 4 4 6 7 6 5 5 4 4 3 2 1 4 6 3 2 5 3 1 1 3 7 5 5 6 6 5 5 5 5 5 3 1 1 1 1 3 5 7 8 11 13 15 17 19 22 23 24 24 25 26 27 26 26 24 25 26 26 26 27 29 29 28 26 25 25 26 26 26 27 28 27 27 27 27 26
2 2 1 4 4 5 5 2 2 5 5 6 6 6 6 5 4 3 2 4 2 2 6 7 5 4 4 4 3 3 4 4 5 4 6 5 6 7 6 6 5 4 3 2 1 2 3 4 6 8 10 12 14 16 19 21 22 22 23 23 25 26 25 25 24 24 25 25 25 26 26 26 25 24 23 24 25 24 24 26 26 25 25 25 25 24
4 1 2 2 2 4 6 5 3 2 4 6 4 4 3 3 3 4 4 3 1 5 5 4 2 3 4 5 4 5 5 4 5 7 9 10 9 8 7 6 5 4 4 3 2 3 4 5 6 7 10 12 13 16 18 20 21 22 22 23 25 25 24 23 23 24 24 24 24 24 24 24 23 22 23 24 24 23 23 23 22 21 22 22 22 22
3 4 3 2 1 3 5 5 4 4 4 5 4 5 4 2 3 2 3 0 3 6 4 2 1 3 6 5 5 6 6 5 4 5 8 11 11 9 8 7 5 4 4 4 4 4 5 6 7 7 9 11 13 15 17 19 20 22 22 22 24 25 23 23 22 23 24 24 24 23 23 23 22 21 22 22 22 21 20 20 19 20 20 20 20 20
3 5 1 1 2 3 7 5 2 1 2 4 5 5 4 2 1 2 3 2 4 4 2 2 1 2 4 3 5 6 5 4 5 5 5 9 11 11 9 6 5 5 5 5 5 5 6 8 8 9 10 11 13 15 17 19 20 21 21 21 24 24 22 21 22 22 23 23 22 21 21 21 20 20 20 20 20 19 18 18 18 19 18 18 18 18
2 4 3 6 2 4 8 6 5 6 4 4 4 5 5 5 4 4 3 3 4 3 2 2 1 3 3 2 4 5 4 3 4 5 5 6 7 6 5 5 5 6 6 6 5 5 7 10 10 10 11 11 13 15 17 19 19 20 21 21 23 23 21 21 21 21 22 22 21 19 19 19 18 19 19 19 18 17 16 16 16 16 16 16 16 15
3 5 5 2 1 4 7 3 4 7 3 2 2 4 3 4 4 2 3 5 3 3 3 2 3 4 3 1 2 3 4 4 3 2 4 6 6 5 5 6 7 7 6 6 5 5 8 11 11 12 12 13 13 15 17 18 19 20 21 21 22 22 20 19 19 20 20 20 19 18 17 17 17 17 17 17 16 15 14 14 14 14 14 14 13 13
3 4 5 2 2 1 3 2 2 3 3 2 2 3 4 4 6 3 1 1 4 2 4 2 3 5 1 1 2 3 4 4 4 2 4 6 7 7 7 8 8 8 7 7 6 6 9 12 12 13 14 14 15 16 17 18 18 19 20 20 21 21 20 19 18 18 18 17 17 16 16 15 15 14 14 14 14 13 13 12 12 12 12 12 12 13
4 2 4 1 1 2 1 2 3 3 3 5 3 5 3 2 4 3 1 2 2 2 4 1 4 5 2 3 2 3 4 5 4 2 3 5 7 8 10 10 9 8 7 6 6 7 10 13 13 14 15 15 16 16 17 17 17 17 18 18 19 19 19 18 17 17 16 15 15 15 14 13 13 13 13 13 12 11 11 11 11 11 11 12 13 13
4 1 4 0 2 2 2 3 3 4 3 4 3 3 4 3 1 2 2 2 2 3 4 3 5 5 4 4 2 3 8 8 6 4 5 8 10 11 11 11 10 8 7 6 6 7 10 13 15 16 16 15 16 16 16 17 16 17 16 16 17 17 17 16 15 15 14 13 13 13 12 12 12 11 11 10 9 8 8 8 9 9 9 10 11 12
3 2 3 1 2 1 2 2 3 2 2 3 1 1 2 2 4 3 2 3 3 4 5 6 6 5 4 5 6 8 10 9 8 7 9 12 12 12 11 11 10 9 8 8 8 7 9 14 17 18 18 17 17 17 16 17 16 16 16 15 15 15 15 14 13 12 12 12 12 11 11 10 10 9 9 8 7 6 6 6 6 7 8 8 10 12
3 3 2 2 1 2 2 3 6 7 4 2 2 3 1 1 2 1 1 2 3 3 3 5 7 6 3 3 6 6 5 6 10 11 11 11 11 12 12 11 10 10 10 9 7 6 9 13 17 19 19 17 16 16 16 16 16 15 15 14 14 13 13 12 11 11 11 11 10 9 10 9 9 9 8 7 6 5 6 6 6 7 8 10 11 13
3 3 3 2 1 3 5 4 4 6 5 4 5 6 6 4 3 1 4 2 2 2 3 3 7 7 3 2 3 2 3 5 8 9 8 9 12 12 11 9 9 8 8 7 5 6 10 13 16 19 19 18 18 17 17 16 16 15 15 14 13 12 12 11 10 10 10 10 9 9 9 9 8 8 7 6 5 5 5 6 7 8 10 11 13 15
3 3 3 3 3 5 5 3 1 2 1 2 3 3 5 5 5 5 6 3 2 2 1 2 4 6 1 1 2 3 4 4 5 7 7 8 9 9 7 7 6 6 6 5 5 8 11 13 16 18 20 20 20 20 19 17 17 16 15 14 13 12 11 11 10 11 10 9 9 7 7 6 6 5 5 6 6 6 6 7 8 9 11 12 14 16
2 3 2 1 2 3 4 3 2 2 2 1 3 2 4 4 3 4 5 2 2 3 2 2 5 5 1 1 2 3 3 3 4 7 7 6 6 6 8 8 7 6 5 5 6 9 11 13 15 18 20 21 21 21 20 19 18 17 15 14 13 13 12 12 12 12 11 9 8 7 6 4 3 3 3 4 5 6 8 9 10 11 13 14 16 18
3 3 3 2 1 3 4 2 1 1 0 3 3 2 3 4 4 2 1 1 2 4 6 3 8 6 2 1 1 3 2 0 3 5 5 5 5 6 7 7 6 5 6 7 7 7 10 12 15 18 20 20 21 21 21 21 20 19 17 16 15 14 14 14 14 13 12 10 9 8 6 5 3 1 1 2 4 7 9 11 13 14 15 17 19 21
4 3 4 5 6 6 4 3 3 2 2 2 2 3 4 6 7 4 2 3 5 4 6 6 9 4 3 2 1 3 4 2 2 2 3 4 5 6 6 6 6 7 8 9 7 6 8 11 15 18 19 20 21 22 23 23 22 21 20 18 17 16 16 16 16 15 14 13 11 10 8 7 6 5 4 4 6 8 10 13 15 16 17 19 20 22
3 1 4 7 9 8 5 4 4 4 4 4 5 6 6 6 8 6 3 4 5 3 5 11 7 2 4 3 2 3 2 2 3 2 4 5 5 5 5 6 6 7 7 7 6 6 7 9 14 17 18 20 22 24 24 25 24 23 22 21 20 19 19 18 18 17 16 15 14 13 12 10 9 7 6 6 7 9 11 13 16 17 18 19 21 22
4 3 7 9 11 8 4 4 4 5 5 7 7 8 8 7 8 8 6 6 5 3 9 11 4 3 9 6 4 6 5 4 4 5 7 7 6 5 4 5 6 7 6 6 6 8 9 9 12 15 18 21 22 24 25 26 26 25 24 23 22 22 21 21 21 20 19 18 17 17 15 13 11 10 8 7 8 9 12 14 17 18 19 20 22 23
4 5 6 7 9 8 4 4 5 5 4 5 7 10 11 9 10 11 11 9 8 7 13 9 5 7 9 4 6 8 5 5 6 6 5 4 4 5 5 5 7 8 7 7 8 9 10 9 10 14 18 20 21 23 24 25 26 26 26 26 24 24 24 23 22 22 21 21 20 20 18 16 14 12 10 9 9 11 14 16 18 19 21 22 23 25
3 3 4 6 6 8 4 4 6 6 4 4 8 12 10 9 11 12 11 9 8 11 12 6 3 8 7 4 6 6 4 4 4 1 3 3 4 5 6 7 8 8 8 8 9 9 9 9 11 15 18 20 23 24 25 26 27 28 29 28 27 26 25 25 24 23 24 23 23 22 20 18 15 13 11 10 11 13 15 17 19 21 22 24 25 26
2 2 2 4 4 7 4 4 5 5 5 7 13 12 6 6 9 8 5 3 4 8 9 4 7 11 5 4 5 5 4 4 5 4 3 4 5 5 6 8 8 8 7 8 8 8 7 9 11 15 17 20 24 25 25 27 28 29 30 29 29 28 27 26 26 26 26 25 24 23 22 19 16 14 12 11 12 14 16 18 20 22 24 25 26 27
3 1 2 2 4 7 4 5 6 4 2 8 17 12 8 8 9 5 5 6 7 8 7 6 9 10 4 4 3 6 5 5 7 7 6 6 6 6 7 8 8 7 8 8 8 7 7 8 10 14 17 20 23 24 26 27 27 28 30 31 31 30 29 29 29 29 29 27 25 24 22 19 17 14 12 12 13 14 16 19 21 22 24 25 27 28
4 4 2 3 5 5 2 5 6 4 1 9 14 12 13 13 8 3 3 8 10 8 7 8 8 5 2 4 4 6 6 6 7 7 6 7 6 6 8 8 7 7 8 7 7 7 8 9 12 16 19 20 22 24 26 27 27 28 30 31 31 30 30 30 30 30 30 28 26 24 22 19 16 14 13 13 14 15 17 20 21 22 24 26 27 28
4 5 4 4 4 2 0 3 5 5 7 7 4 7 14 15 12 9 10 11 9 7 5 5 3 1 3 5 7 9 8 6 6 6 6 6 5 6 7 7 7 7 7 6 6 7 8 11 13 16 18 19 21 22 23 25 27 28 29 29 29 29 29 29 29 28 27 26 26 24 21 19 16 15 14 14 15 17 18 20 21 22 24 25 27 28
6 6 3 2 2 1 2 3 4 7 8 3 4 1 6 9 11 12 11 10 8 8 7 5 4 5 7 9 9 7 6 5 4 5 5 5 6 6 6 7 8 7 6 5 6 7 10 12 12 13 14 15 17 18 19 22 24 26 27 27 27 27 27 27 26 26 25 25 25 23 21 18 16 15 14 14 16 17 18 19 21 22 24 25 26 27
7 6 2 2 3 2 2 5 7 4 2 1 4 4 2 4 4 3 5 8 8 9 8 7 8 10 11 10 6 2 2 2 3 4 6 6 7 7 7 7 7 7 7 7 8 9 10 11 11 10 11 11 12 15 17 19 21 24 26 26 25 25 24 24 24 24 25 25 24 22 20 17 16 14 14 15 17 18 18 19 21 22 24 25 25 26
6 5 3 3 4 3 3 6 3 4 3 3 2 2 3 5 6 5 5 8 7 7 8 8 10 13 11 6 1 2 3 3 5 5 6 7 7 7 7 7 7 8 10 10 10 9 9 9 8 8 9 9 9 11 12 14 17 20 22 23 22 22 22 22 23 24 25 25 23 21 19 16 15 15 15 16 17 18 19 20 21 22 23 25 26 26
3 4 5 6 4 3 3 4 2 3 7 6 4 3 3 4 6 6 4 6 5 5 10 10 10 12 9 4 2 3 4 2 4 6 5 6 6 6 6 8 9 11 12 12 11 11 10 10 10 9 9 9 8 8 9 10 13 15 17 19 20 20 20 21 23 24 24 24 21 19 17 15 15 15 15 16 17 18 19 20 21 22 23 24 26 27
2 0 2 4 2 3 3 5 5 6 6 3 3 2 1 3 6 7 2 6 6 6 10 10 9 9 8 5 5 5 5 2 5 6 5 6 6 6 6 8 9 12 12 13 14 14 13 12 12 11 11 11 11 11 11 12 12 13 15 17 17 18 20 22 23 24 23 21 19 17 15 15 14 15 15 17 18 19 20 21 22 22 23 24 25 27
1 1 1 4 4 4 5 4 4 4 3 0 3 3 1 3 8 8 2 8 6 6 7 8 8 9 6 6 6 6 6 5 6 6 5 5 5 7 9 10 11 14 15 15 16 15 14 14 14 14 15 14 14 14 14 14 14 14 16 17 17 19 21 23 23 22 21 19 17 16 15 14 14 15 16 17 19 19 20 21 22 23 23 24 25 26
0 0 1 4 5 6 7 4 2 3 3 3 4 5 5 4 7 4 6 7 4 6 6 7 9 8 7 8 7 5 7 7 5 3 4 5 4 6 11 15 15 16 17 17 17 15 14 15 17 18 18 17 15 15 16 15 15 16 17 18 19 22 23 22 22 21 19 18 16 15 14 14 14 16 17 17 19 20 20 20 21 23 23 24 25 26
3 1 1 2 3 3 4 3 2 4 4 6 5 3 4 4 2 4 6 3 6 8 7 7 8 7 8 9 8 7 8 6 3 2 3 5 4 5 9 12 13 13 15 16 15 15 16 17 18 20 19 18 17 17 17 16 17 18 19 20 22 23 22 22 21 20 19 17 15 14 13 14 15 16 17 17 18 20 21 20 21 21 22 23 25 26
5 3 2 3 3 1 1 3 3 5 3 11 11 1 2 4 5 5 2 1 4 6 7 7 7 6 8 8 9 9 7 4 3 4 4 4 5 6 7 9 11 14 16 16 16 17 18 19 20 22 21 20 20 19 18 18 19 19 20 22 23 22 21 21 21 19 17 15 14 14 14 15 16 16 16 17 18 20 21 21 20 21 21 22 24 26
3 3 3 3 3 4 3 6 5 2 4 12 12 5 6 7 5 5 6 4 3 4 6 6 7 7 9 9 9 9 7 5 5 5 5 5 6 7 7 9 11 14 16 19 20 20 19 20 22 23 23 22 21 20 20 21 20 21 22 23 22 21 21 21 19 17 16 15 14 14 15 16 16 16 16 17 18 19 20 20 20 21 21 21 22 25
3 3 4 3 3 4 5 6 3 1 4 8 7 5 8 8 5 6 7 6 4 5 5 5 6 8 9 9 8 7 6 6 7 6 6 6 7 8 9 11 14 17 19 20 21 20 21 23 24 23 22 22 21 21 22 22 22 22 23 22 21 21 21 19 18 16 15 14 14 15 15 16 15 15 16 16 17 19 19 19 20 21 21 21 22 24
2 2 3 2 2 4 3 3 2 0 3 7 6 4 6 6 4 5 5 4 5 6 6 6 7 8 8 8 7 6 6 7 7 7 7 6 7 8 10 12 15 18 20 20 20 20 22 23 22 21 22 22 22 22 22 22 22 23 23 21 21 21 20 18 17 16 15 14 15 15 15 16 15 15 16 16 16 17 18 19 20 21 22 21 22 23
2 2 3 1 2 4 3 3 4 3 4 8 8 5 4 4 5 6 5 5 5 6 7 7 6 5 7 8 8 8 8 8 7 7 7 6 7 8 9 11 16 19 20 21 22 21 20 20 21 22 23 24 24 24 23 23 23 22 21 20 20 20 18 17 16 15 15 15 14 14 15 16 16 15 15 15 15 16 17 18 19 20 21 22 22 23
2 3 2 2 4 3 1 2 1 1 2 6 7 5 5 6 6 6 5 6 5 5 5 5 4 6 6 7 9 9 8 7 8 8 7 6 7 7 9 13 17 20 21 22 21 19 19 21 24 25 25 26 26 25 24 23 23 22 21 20 20 19 17 16 16 15 15 15 14 15 16 16 16 16 15 15 15 16 17 17 18 20 21 21 21 23
2 3 3 3 3 2 1 2 1 3 4 5 6 7 8 8 6 6 6 5 5 4 4 4 4 6 7 7 8 8 7 8 8 8 8 8 7 8 11 15 19 21 22 21 19 19 20 23 25 27 28 28 27 25 25 24 23 22 22 21 20 18 17 16 16 15 15 15 15 16 16 16 15 15 16 16 17 17 17 17 17 19 22 21 20 21
3 4 3 3 3 4 3 5 5 2 2 6 8 10 12 9 6 6 6 6 6 7 7 6 6 6 7 8 8 8 7 9 9 7 8 8 9 12 15 17 19 20 21 20 18 19 22 25 26 27 28 27 26 25 25 25 24 23 22 21 20 18 17 16 16 15 15 16 16 16 16 15 15 15 16 17 17 18 19 18 17 17 20 22 21 19
5 7 7 5 5 5 5 8 8 5 5 6 8 10 11 8 7 8 9 9 9 9 8 8 8 7 8 10 11 11 9 9 10 9 8 8 13 17 19 19 19 20 20 19 18 20 23 24 25 26 27 27 26 25 25 25 25 24 23 21 19 18 17 16 16 16 16 17 16 16 15 15 15 15 15 16 17 18 20 21 20 17 16 18 18 18
Wind_Direction
114 129 199 223 210 193 199 201 204 190 136 143 142 147 192 214 256 256 249 273 217 188 269 246 231 250 258 279 1 357 60 91 108 107 105 87 56 23 33 28 26 37 18 26 44 50 52 58 65 70 74 76 77 77 77 79 81 82 86 90 90 91 98 101 98 97 94 91 90 88 86 84 81 81 81 77 74 71 68 66 63 59 56 52 52 53
91 168 225 232 204 189 204 206 205 163 110 116 152 187 241 222 249 264 247 297 344 177 272 299 257 262 257 291 355 350 80 103 156 144 140 114 76 21 29 20 9 6 358 26 41 45 49 56 65 70 74 77 76 74 76 79 81 83 86 88 88 89 92 92 92 93 92 91 91 90 88 86 83 80 79 77 74 73 72 69 66 63 59 56 56 55
96 218 237 230 153 132 133 174 185 198 163 133 140 180 260 234 265 289 294 338 14 174 272 308 245 266 266 80 24 359 94 109 309 118 125 127 118 55 36 19 13 6 357 15 29 35 42 52 63 70 72 75 77 77 80 82 85 87 88 89 90 91 92 92 93 93 93 94 94 93 91 89 85 81 79 79 76 74 72 69 66 64 62 61 61 59
184 245 242 193 135 137 116 124 141 146 168 184 169 185 248 233 75 282 303 345 355 185 278 204 228 271 269 88 40 11 84 74 41 69 75 89 121 109 63 19 28 17 359 11 19 24 36 49 60 67 70 75 80 80 81 84 87 89 90 92 94 96 95 96 96 96 98 99 97 96 94 92 89 86 84 81 76 72 70 68 65 63 62 62 62 62
222 243 204 120 132 164 179 146 136 143 217 237 212 208 230 221 208 231 285 327 327 350 6 140 303 289 259 241 233 30 69 74 52 72 71 53 79 97 73 40 31 17 350 8 13 7 24 45 57 65 70 75 77 77 78 82 86 90 92 95 97 98 98 99 99 101 104 104 104 103 100 97 92 84 78 75 71 69 69 68 67 66 65 65 65 64
247 236 123 108 117 157 180 196 173 167 201 280 233 213 222 222 220 231 332 352 358 342 332 77 297 289 298 276 217 170 142 96 44 67 95 51 47 73 70 46 22 9 349 358 1 354 16 43 59 66 70 72 74 75 79 85 90 93 96 98 99 99 99 101 103 107 111 110 109 107 99 91 84 76 69 69 71 71 72 72 72 70 69 67 66 65
256 260 130 152 154 152 183 231 217 169 145 285 253 210 212 204 197 198 148 80 312 271 313 49 219 267 319 314 244 148 139 72 16 14 197 245 64 107 93 46 10 2 356 358 359 2 22 42 56 62 65 70 74 78 85 91 94 97 99 100 100 99 99 101 102 105 106 104 101 96 90 86 83 80 76 76 78 77 78 77 75 73 71 69 68 66
200 144 95 148 148 160 198 240 215 161 134 233 253 158 162 169 181 183 162 178 231 259 321 15 155 264 290 287 330 95 109 319 282 240 248 240 223 201 197 238 241 276 322 348 352 0 24 42 55 62 69 76 82 87 92 93 95 97 98 98 99 98 98 99 99 97 95 94 93 92 91 88 87 87 85 84 84 82 82 79 76 74 72 70 69 68
150 168 184 161 148 185 208 215 183 158 152 233 194 118 128 148 158 144 135 174 276 22 308 303 105 269 268 272 359 55 294 274 243 214 228 225 218 212 211 228 231 239 267 288 312 353 29 50 63 73 82 89 94 95 95 95 96 97 97 98 97 96 97 97 96 95 93 94 95 94 94 92 91 91 90 88 86 83 81 79 77 75 73 72 70 68
102 222 200 153 159 204 202 207 178 165 185 199 134 99 83 84 92 91 112 128 63 53 250 247 190 217 272 282 343 58 265 260 222 196 219 215 213 216 215 223 221 224 239 233 237 38 55 71 81 89 96 98 99 100 101 101 101 101 100 99 97 95 97 98 97 97 97 97 97 96 97 97 96 94 92 89 84 80 78 76 74 73 72 71 69 68
327 304 191 145 178 189 146 99 159 155 153 145 111 71 52 40 45 48 66 93 72 275 248 237 201 191 266 278 224 200 230 216 153 174 217 210 211 215 216 218 212 203 196 194 166 101 97 100 104 106 104 103 105 107 108 107 107 105 104 103 100 99 100 100 101 100 99 99 98 98 99 99 97 95 92 86 80 77 75 73 71 70 70 68 67 66
334 336 262 227 168 129 102 69 38 73 110 114 96 83 74 350 12 26 359 47 136 253 258 269 242 183 230 259 239 227 234 206 167 183 196 195 204 209 210 212 204 196 189 189 186 161 143 127 122 120 115 114 116 114 112 111 111 110 108 108 105 103 102 103 103 102 101 100 99 99 100 97 95 92 88 84 79 76 74 72 71 71 69 67 65 63
302 239 258 293 198 140 113 84 39 27 65 96 101 104 100 342 358 354 311 249 224 247 259 308 320 213 230 240 233 224 218 219 223 214 196 191 194 198 205 205 193 189 190 191 196 192 173 153 144 140 134 129 125 120 117 116 116 114 113 113 110 106 106 106 105 104 102 101 99 99 98 96 94 90 87 84 81 78 75 73 71 68 65 63 61 58
288 287 284 160 251 187 152 149 159 169 151 148 144 133 130 122 129 265 268 261 262 258 265 288 251 244 263 246 223 222 219 228 245 252 225 199 193 195 197 192 184 191 200 204 203 197 185 170 163 158 150 142 134 128 125 123 122 121 119 117 114 111 111 110 109 107 105 102 101 100 98 96 94 92 89 86 83 80 76 73 70 67 64 61 58 55
197 293 218 176 227 191 178 185 161 143 147 177 162 136 145 156 171 214 216 213 252 281 294 275 205 201 223 220 221 237 264 275 262 251 230 207 198 187 175 173 188 201 208 214 208 200 191 178 172 169 161 152 143 137 134 131 129 127 124 122 120 118 117 115 112 110 107 105 104 102 101 98 96 94 91 88 85 82 79 75 73 70 66 63 59 54
161 263 255 229 285 173 181 198 116 112 123 212 134 110 163 186 154 160 193 173 180 306 297 218 217 223 196 217 280 288 304 316 319 282 194 187 179 163 174 192 202 210 211 212 206 202 196 184 178 175 168 161 153 146 142 138 136 134 130 127 124 121 120 118 114 111 108 109 107 104 101 98 95 94 91 88 85 81 79 76 73 70 66 61 56 50
133 272 289 0 356 168 188 207 112 123 176 164 134 173 215 184 123 111 266 91 94 271 271 195 246 284 328 305 313 354 326 309 327 334 169 174 168 172 196 205 206 211 211 208 203 199 194 185 181 179 173 168 162 155 149 144 142 140 136 133 128 125 123 119 115 112 110 110 108 104 100 97 94 91 88 85 82 79 75 72 68 63 57 51 45 38
144 262 289 91 165 278 278 131 63 30 125 124 180 211 193 121 96 101 242 344 58 242 271 221 238 268 266 264 318 7 306 270 252 222 171 173 180 191 206 208 209 213 210 208 203 200 195 186 181 181 177 173 168 161 154 150 147 144 141 139 135 131 127 121 117 114 112 111 108 103 100 95 90 86 83 80 77 74 69 63 57 49 43 38 30 24
135 220 292 73 177 278 357 100 71 359 60 122 189 188 115 132 155 110 171 222 216 242 273 272 260 256 214 216 229 223 237 230 208 193 189 193 195 201 207 208 210 211 210 210 205 203 196 188 185 182 178 176 170 165 159 155 153 150 147 145 140 135 129 126 123 119 115 111 107 103 98 93 87 83 79 77 73 68 64 59 51 42 35 27 19 12
124 173 271 306 219 224 34 114 176 233 26 62 83 85 63 151 168 160 167 172 190 236 265 275 282 276 224 194 182 202 218 203 179 186 205 206 202 202 205 204 205 205 206 208 204 201 192 189 189 184 180 177 172 170 167 163 161 158 155 151 146 140 136 133 130 125 119 113 108 104 100 94 89 84 78 75 69 59 54 49 40 30 22 14 6 0
113 171 228 292 298 163 180 213 191 183 171 133 145 173 209 131 119 205 231 137 145 192 231 259 270 269 253 184 181 210 235 193 185 195 205 206 204 208 208 203 203 204 208 208 199 191 189 190 191 187 185 181 176 178 176 172 170 165 161 159 153 149 146 143 138 133 126 119 114 110 105 98 89 82 74 66 59 48 38 29 20 14 8 2 356 353
158 167 172 183 187 186 225 247 201 188 180 167 182 190 186 167 134 206 251 208 136 189 198 222 263 266 252 165 185 240 262 212 203 202 203 206 207 210 212 208 207 208 209 207 191 188 191 193 192 190 189 188 186 186 183 179 177 172 168 166 162 159 157 153 149 144 138 132 127 119 111 102 92 84 73 63 54 39 26 12 4 1 357 355 352 350
147 125 141 192 209 213 243 282 157 191 172 150 196 191 174 174 162 189 230 225 157 230 152 111 266 272 253 168 220 244 251 246 218 200 205 215 210 210 215 217 219 216 211 200 191 195 195 195 195 193 195 196 195 192 188 184 181 178 176 173 171 168 165 163 161 157 153 148 142 134 125 115 103 89 72 59 47 33 22 8 359 354 349 347 346 345
140 129 144 251 297 307 309 336 31 56 76 173 229 166 153 184 180 191 214 174 169 222 131 101 257 263 268 193 228 254 257 247 213 201 206 213 207 206 209 212 215 212 206 201 194 194 194 195 196 197 200 201 199 196 193 190 187 183 182 180 179 177 175 174 173 171 172 170 166 163 155 146 127 98 63 41 30 19 13 5 356 350 344 342 341 341
186 165 137 152 297 336 338 333 342 353 178 212 232 196 167 159 114 96 168 126 234 206 143 175 251 251 265 273 346 0 13 202 220 205 196 201 204 210 211 211 213 206 207 210 198 186 188 192 198 202 205 203 200 198 196 196 195 191 189 189 189 187 186 186 185 186 190 191 189 187 181 181 188 192 304 342 355 357 358 356 351 347 342 339 339 339
173 173 153 174 211 225 223 209 208 218 202 203 215 207 205 179 157 161 172 185 231 195 152 216 252 269 319 321 7 14 29 7 274 205 180 211 212 210 212 211 209 207 213 213 198 183 188 195 204 208 208 205 202 200 200 200 200 199 199 200 200 200 199 199 199 200 203 204 203 203 204 210 220 233 262 299 326 339 345 347 345 342 338 335 335 334
121 176 192 201 222 224 209 208 197 147 146 193 211 202 204 196 180 173 158 189 209 175 204 237 246 296 284 254 255 309 309 243 255 205 199 227 223 217 220 218 217 218 218 208 188 185 196 204 209 210 209 208 205 204 204 204 204 203 204 205 206 210 211 209 210 210 210 212 213 215 217 220 227 240 260 286 311 327 334 337 337 335 332 331 330 329
112 219 217 212 235 233 168 176 191 154 169 199 205 208 210 196 179 182 202 206 167 161 245 247 204 221 255 231 204 251 245 216 230 219 215 223 216 209 213 220 229 231 220 198 189 199 205 210 212 210 210 209 207 208 208 208 208 208 208 209 210 213 214 214 214 215 215 217 218 220 222 224 231 242 257 277 300 316 323 327 329 329 328 328 327 327
136 225 215 196 237 241 164 159 181 175 202 203 201 219 219 199 187 198 218 216 179 207 252 254 170 212 249 220 193 221 217 203 219 213 204 203 186 184 196 216 229 230 220 208 208 213 214 215 211 207 208 209 208 209 210 209 211 210 211 212 213 213 214 213 214 216 218 220 222 223 223 226 233 241 253 273 294 308 316 322 325 326 327 327 327 327
158 225 190 169 235 251 212 168 170 189 220 227 229 231 219 203 205 209 221 220 203 229 256 270 232 241 244 198 205 219 193 202 233 207 158 177 184 192 204 221 232 233 225 219 221 222 219 217 214 209 208 207 208 209 209 210 211 212 212 213 214 216 216 214 216 219 220 223 225 224 223 226 232 241 255 276 293 305 313 320 323 325 326 326 326 326
208 212 121 136 226 254 230 146 158 200 210 232 247 239 195 197 224 218 210 196 200 243 256 258 259 261 246 165 202 235 214 219 262 271 235 220 215 214 220 229 238 240 233 228 228 224 221 219 217 214 211 208 209 209 209 211 213 214 215 215 217 219 220 219 221 223 224 226 227 224 223 226 234 245 260 277 291 302 312 318 321 323 323 323 322 322
194 190 57 106 216 244 219 153 164 177 174 251 255 237 184 199 221 195 176 191 201 225 237 234 247 259 243 143 190 243 232 224 245 250 249 248 232 218 229 238 240 236 233 232 227 218 217 217 214 214 215 213 212 210 211 213 214 214 216 219 222 224 224 224 226 228 228 229 227 223 222 228 237 248 262 276 288 301 311 315 317 318 318 318 318 319
169 166 137 171 216 245 223 154 154 137 192 257 252 220 193 210 220 182 212 224 212 207 219 232 243 250 194 154 201 244 234 220 234 236 234 242 235 222 231 239 242 240 234 228 222 216 216 217 217 218 219 217 215 216 218 217 215 217 221 224 226 227 226 226 228 230 231 229 224 222 223 231 240 250 262 275 289 300 307 309 311 313 313 314 315 315
174 183 186 188 202 234 342 118 137 171 220 244 246 180 189 202 204 207 232 234 213 197 213 240 259 218 166 189 215 237 233 215 221 231 226 223 226 229 235 236 237 239 235 227 220 217 217 218 220 221 222 223 223 224 225 223 222 225 228 228 228 228 228 229 230 231 230 226 221 222 227 234 242 252 264 277 290 298 302 305 307 310 310 310 311 312
179 191 195 155 149 118 65 111 176 217 229 255 6 18 191 189 188 202 234 246 222 208 218 239 250 235 229 228 225 230 238 234 233 243 242 227 218 220 227 232 230 227 228 228 220 218 218 216 217 221 225 229 232 231 230 230 230 231 231 230 231 231 232 233 232 231 228 222 220 224 229 236 243 254 267 280 289 295 299 303 306 308 309 309 310 310
181 186 166 129 140 116 126 187 206 240 263 349 352 347 60 105 131 172 264 265 231 209 204 211 230 237 239 241 238 213 222 277 292 255 234 229 221 208 209 220 218 210 212 214 211 214 220 219 221 227 231 235 237 235 235 237 236 234 234 234 235 236 236 235 232 229 225 220 221 225 229 236 245 257 270 281 288 294 299 303 306 307 308 309 309 310
181 173 160 189 190 151 177 211 235 327 288 231 246 251 171 148 147 164 232 258 240 199 179 186 219 238 242 239 240 86 89 25 331 281 238 225 214 202 208 219 214 211 214 212 209 212 218 219 218 219 222 226 228 230 235 239 239 237 237 238 238 238 237 233 230 226 221 218 220 224 230 238 250 263 275 283 289 296 300 304 306 308 309 309 309 310
184 181 186 207 204 137 158 219 259 284 255 234 202 195 178 157 154 157 200 268 272 204 183 183 204 229 238 217 132 96 85 57 298 277 258 239 215 192 209 230 227 220 216 210 207 207 206 205 202 201 206 211 220 230 238 242 243 242 240 239 238 235 231 228 225 220 216 217 220 225 233 244 256 269 278 285 292 298 302 304 306 307 308 309 309 310
40 264 198 207 204 140 170 217 220 228 255 256 189 174 114 139 129 103 63 282 263 208 186 178 193 217 220 192 154 126 115 160 259 265 257 240 220 191 200 224 229 226 222 212 204 199 197 197 198 201 206 211 219 229 237 243 245 242 239 238 234 228 224 222 219 216 214 217 222 229 239 251 263 273 281 288 294 298 300 303 305 306 307 307 308 308
49 17 208 212 212 189 192 220 232 238 266 238 151 146 150 149 109 86 323 271 246 206 178 164 190 214 194 164 154 145 159 197 233 244 228 213 212 206 206 213 219 221 219 211 203 199 201 204 206 206 210 216 223 228 234 238 238 235 236 234 226 222 224 221 217 215 216 220 226 234 246 258 268 277 284 290 295 297 299 303 304 305 306 306 305 305
103 326 228 219 220 212 212 227 267 260 238 189 168 169 162 110 80 105 237 242 199 193 187 169 191 203 168 155 164 181 207 214 208 204 186 171 183 214 216 219 222 219 213 208 207 208 212 215 214 213 216 222 226 230 233 231 228 228 228 223 220 224 225 221 216 216 218 223 231 240 252 263 271 279 285 289 294 296 298 301 303 302 303 304 304 303
174 183 241 215 207 218 230 240 294 279 224 150 141 187 160 123 130 219 230 213 166 179 191 192 198 189 166 173 186 200 220 221 190 183 194 181 194 229 226 220 219 218 215 214 217 221 222 221 218 217 221 226 228 231 231 226 224 224 219 217 222 226 222 216 216 218 221 227 236 246 257 267 273 280 285 289 293 295 296 298 299 300 301 302 303 303
173 154 207 218 177 134 257 229 239 272 216 131 121 114 246 191 203 205 180 173 180 169 171 195 209 191 175 189 206 216 227 234 214 227 237 228 231 245 238 219 210 214 218 219 223 227 224 221 221 222 225 228 228 229 226 222 221 220 217 220 225 222 216 215 218 221 225 233 243 252 261 269 274 280 285 289 292 293 294 297 298 299 301 302 302 302
189 167 199 225 182 146 191 220 215 224 175 149 139 160 214 203 183 157 146 167 209 184 170 191 212 202 187 194 209 216 224 242 244 238 238 238 238 242 243 231 219 219 223 225 229 230 224 220 223 225 227 229 228 226 223 221 220 219 219 223 224 217 215 218 220 224 232 241 250 259 266 271 276 281 285 288 290 290 293 297 299 299 301 302 302 302
228 181 175 200 203 177 185 212 226 140 173 178 167 178 200 195 171 152 150 157 194 203 182 185 209 206 195 198 204 203 208 225 234 232 226 232 237 236 236 234 227 225 228 232 236 234 227 225 227 227 227 228 227 223 221 220 220 221 223 225 222 219 219 222 225 231 240 249 257 263 268 272 276 281 284 285 287 289 293 297 298 299 301 302 302 301
253 146 147 151 244 256 232 186 178 131 189 200 211 213 196 187 174 164 159 168 194 191 179 189 204 199 191 189 191 202 216 222 228 236 232 234 242 238 233 236 237 234 232 235 240 237 230 227 227 226 226 227 225 221 219 219 220 225 229 227 223 222 223 226 231 239 246 255 261 265 269 273 275 278 280 282 285 288 292 295 297 299 300 301 301 299
271 146 148 177 236 261 263 164 153 161 185 196 211 228 229 222 207 188 188 209 206 185 189 205 202 177 174 180 186 205 221 217 220 237 242 237 241 242 234 233 238 237 235 238 242 239 229 222 221 221 222 224 223 219 217 219 222 226 229 227 223 223 226 229 237 245 252 258 262 266 269 273 275 276 278 282 285 286 288 292 295 297 298 300 301 299
247 141 149 234 225 208 192 181 185 329 243 215 217 226 237 236 221 204 211 227 221 193 195 203 175 145 159 184 193 205 223 222 215 227 240 239 239 241 234 233 238 242 243 244 243 237 226 220 221 221 222 224 222 218 216 218 221 223 225 224 223 224 228 234 241 248 254 258 262 265 268 271 275 279 282 284 284 285 288 291 293 294 296 299 299 297
151 160 180 202 210 213 179 161 102 19 325 266 241 234 239 236 219 212 222 231 230 219 206 207 197 178 181 197 194 192 220 236 225 219 230 239 242 239 237 238 241 244 246 248 245 236 229 226 225 224 224 225 222 217 216 217 219 221 222 223 223 225 230 237 244 248 253 257 260 263 266 271 276 281 284 286 286 286 288 290 294 296 297 299 299 298
146 195 183 138 190 236 212 171 161 157 245 239 225 225 233 231 208 207 220 221 224 221 206 209 228 220 213 219 204 184 210 240 237 220 222 235 242 241 242 243 244 246 249 250 245 238 233 231 229 227 226 225 221 216 215 215 216 218 220 221 224 228 232 237 243 247 250 254 258 261 265 270 275 278 281 283 287 289 289 289 292 295 295 296 297 293
184 201 189 176 212 225 179 172 186 199 221 231 222 218 225 216 192 204 222 222 223 222 204 200 220 233 236 235 219 202 211 238 240 226 222 237 243 244 246 247 245 247 250 246 238 234 233 230 228 226 224 221 217 214 213 213 214 215 218 221 225 231 235 238 241 246 249 252 255 259 264 268 272 274 277 280 285 289 293 295 295 292 289 291 294 291
Height
823 826 828 824 823 825 824 824 822 823 827 830 833 834 834 834 831 829 828 827 828 828 825 824 826 823 816 819 831 839 837 837 840 840 842 844 844 845 845 844 844 843 843 841 839 837 836 834 833 831 831 830 829 829 829 828 828 827 827 826 826 827 828 828 828 829 830 831 832 832 833 834 835 836 835 836 836 836 837 837 837 836 836 836 836 836
825 828 823 816 818 821 822 824 825 827 830 831 833 833 835 838 834 828 828 829 830 830 825 825 828 821 815 824 837 840 835 835 838 839 841 844 845 847 846 846 846 845 844 842 840 838 837 835 834 832 831 829 829 829 829 829 829 829 828 827 828 829 829 829 830 830 831 833 834 834 836 837 837 838 838 838 838 839 839 839 838 838 838 838 837 837
830 827 817 815 820 822 824 827 828 830 832 832 835 837 836 837 835 828 829 833 832 830 826 827 829 817 816 833 842 841 838 840 843 841 843 845 846 847 847 847 847 846 846 844 842 840 839 837 835 833 832 831 831 831 830 830 830 829 829 829 829 829 830 831 832 832 833 834 836 836 838 838 839 840 840 841 841 841 841 841 841 841 841 840 839 839
829 821 814 816 820 821 825 828 829 832 834 834 835 836 834 835 836 828 828 833 832 833 830 828 830 820 818 833 842 845 844 844 847 845 846 847 846 847 848 848 848 848 848 846 844 842 841 839 837 835 834 833 833 832 832 831 831 830 830 830 830 831 831 832 833 834 835 836 837 838 839 840 840 842 843 843 843 843 843 843 843 843 843 843 842 842
818 813 815 818 819 820 823 827 831 831 833 835 834 834 832 832 833 829 830 832 831 835 835 832 831 821 815 821 831 844 848 846 848 847 847 848 848 848 848 848 849 849 849 848 846 845 843 841 839 837 836 836 835 834 834 833 832 832 832 832 832 832 832 833 834 835 836 837 838 839 840 841 842 843 843 843 844 845 845 845 845 845 846 845 844 844
815 813 816 817 820 822 822 826 829 829 832 833 829 828 827 826 829 831 834 834 832 832 834 835 828 815 812 813 824 842 848 846 849 848 848 849 848 848 848 848 849 849 849 849 848 847 845 844 842 840 839 838 837 837 837 836 835 834 834 833 833 833 833 834 835 837 838 838 839 840 841 842 842 843 844 845 846 846 846 846 847 847 847 846 846 845
816 815 815 814 818 821 822 825 827 828 833 833 827 824 826 828 830 833 835 834 833 831 836 840 832 821 812 807 824 845 847 847 850 848 849 849 848 848 848 848 848 848 849 849 849 849 848 846 844 842 841 840 840 840 839 838 838 837 836 835 834 834 835 836 836 837 838 838 839 840 841 843 843 845 847 849 849 848 848 848 847 847 847 847 847 847
813 815 817 816 817 821 822 822 825 827 828 828 828 827 826 826 828 833 834 834 834 834 837 837 835 834 820 813 835 848 843 846 849 848 849 848 847 848 848 847 847 848 848 849 849 849 849 847 846 844 843 842 842 842 841 841 840 839 838 837 836 836 836 837 838 838 838 838 839 841 842 844 845 847 849 851 850 850 850 849 848 848 848 849 849 849
814 813 815 816 818 821 819 816 820 823 821 824 832 832 830 829 831 834 834 835 840 841 837 832 835 836 822 820 841 846 836 832 837 845 847 846 848 847 847 847 846 847 847 848 849 849 849 848 847 846 845 844 844 843 843 842 842 841 841 840 839 838 838 839 839 839 839 840 840 842 842 844 847 849 851 852 852 851 851 850 849 850 850 850 851 851
815 815 814 814 815 815 815 818 821 817 816 826 835 832 832 836 836 836 834 834 840 843 835 827 829 831 820 817 830 835 825 817 826 844 846 844 848 847 846 846 845 846 847 848 849 848 848 848 847 847 846 846 845 845 844 844 844 844 843 842 841 841 841 841 842 841 841 842 842 843 844 846 849 851 852 852 852 852 852 851 851 851 851 852 852 853
816 820 818 814 812 812 815 824 829 822 821 828 828 822 826 832 833 836 837 835 837 838 831 825 826 828 822 816 817 821 819 816 824 839 844 845 847 845 845 845 844 846 846 847 848 847 848 847 848 848 847 847 846 846 846 845 846 845 845 844 843 844 845 844 844 843 844 844 844 845 846 848 850 852 852 852 852 853 853 853 853 853 854 854 854 855
816 817 816 812 814 816 815 822 831 830 828 825 819 818 824 829 831 835 837 838 839 832 827 833 835 833 825 813 810 813 819 825 823 825 834 842 843 843 844 843 844 845 846 846 846 846 847 847 847 848 847 847 847 847 847 847 847 847 847 846 845 846 847 846 846 845 845 846 846 848 849 850 852 852 852 852 853 855 854 854 855 855 855 856 856 857
813 812 813 812 815 815 809 816 827 830 828 822 818 822 828 834 836 834 836 842 840 830 833 840 835 830 822 808 804 805 812 828 829 826 832 836 839 842 842 842 844 845 845 845 845 844 845 846 847 848 847 847 847 848 848 848 848 848 848 847 846 847 849 848 848 847 847 848 849 850 851 851 852 853 853 854 854 855 856 856 857 856 857 857 857 858
811 810 812 810 809 809 805 809 816 820 824 822 818 820 827 836 838 835 840 846 836 827 837 844 834 825 813 803 808 810 815 831 834 832 834 834 837 839 839 843 844 845 845 844 844 843 844 845 845 846 847 848 848 848 849 849 849 849 849 848 847 848 850 850 849 848 848 849 850 851 852 853 854 854 854 855 856 857 857 858 858 858 859 859 859 860
812 804 803 805 804 803 801 801 804 810 821 823 819 818 821 824 825 826 830 830 824 822 834 841 829 812 800 805 822 826 829 837 835 834 837 835 837 839 841 845 845 845 845 843 843 843 843 844 844 846 847 847 848 848 849 849 850 850 850 849 848 849 850 851 850 850 849 850 852 853 853 854 855 855 856 857 858 858 859 859 859 860 860 860 861 861
815 802 797 805 806 803 801 802 804 807 816 825 825 821 818 814 812 822 830 829 830 829 830 832 819 804 806 822 837 837 834 835 833 834 836 834 837 841 843 845 844 844 843 842 843 842 843 843 843 845 846 847 848 848 849 849 850 850 850 850 850 850 851 852 851 850 850 852 853 854 855 856 856 857 857 858 859 860 860 860 860 861 861 861 862 862
811 803 801 807 806 806 806 804 805 805 809 822 826 817 818 817 809 818 833 841 843 833 823 822 812 803 808 819 832 838 832 831 833 833 834 836 838 840 842 842 842 842 841 841 842 842 842 842 843 845 845 847 848 848 849 849 850 851 851 850 850 851 852 852 851 852 852 853 854 855 856 857 857 858 858 859 860 860 861 861 861 861 862 862 862 863
798 797 801 806 802 808 815 808 806 808 809 816 819 812 817 821 814 816 825 833 840 833 820 816 808 800 799 803 820 831 824 821 830 834 835 837 839 839 839 838 839 839 840 841 841 841 841 841 843 844 845 846 847 848 849 849 850 851 851 851 851 851 852 852 852 853 854 855 855 856 857 858 858 859 859 860 860 861 861 861 861 862 862 862 862 863
793 794 801 810 807 808 814 808 806 812 812 811 810 809 812 815 816 821 824 823 827 827 815 805 801 799 795 796 806 810 802 805 823 835 835 834 835 835 834 835 837 838 839 840 840 840 840 841 842 843 845 846 847 848 849 849 850 850 851 852 852 852 852 852 853 854 855 856 856 857 858 858 859 859 860 860 861 861 862 862 862 863 863 863 862 862
792 792 798 810 811 808 809 806 805 809 813 812 811 813 813 811 812 816 819 816 814 818 813 803 798 790 787 790 789 787 790 799 816 829 830 829 830 830 829 830 833 834 835 836 836 837 839 840 841 842 844 845 846 848 848 849 849 850 851 852 851 852 852 853 854 855 856 857 857 858 859 859 860 860 861 861 861 862 862 862 863 863 863 862 862 862
791 793 796 807 812 809 804 802 800 799 805 809 810 813 814 814 815 814 815 812 810 813 812 811 803 784 783 797 791 786 798 807 810 815 820 825 826 825 826 826 828 830 831 832 834 837 838 839 841 842 843 845 846 847 847 848 849 850 850 851 851 852 853 853 854 855 856 857 858 859 859 859 860 860 861 862 862 862 862 862 862 862 862 862 862 861
788 792 796 802 807 803 796 799 802 798 798 799 800 803 805 807 812 815 815 813 811 810 806 809 804 782 786 809 807 800 808 810 810 813 817 822 822 822 824 825 827 829 829 832 835 837 838 839 840 842 843 844 844 845 847 847 848 849 849 850 851 852 853 854 855 856 857 857 858 859 859 860 860 861 861 862 862 862 862 862 862 862 862 861 861 860
784 790 793 797 800 798 798 805 810 806 801 798 798 799 799 801 803 804 809 809 810 813 809 812 808 788 794 814 813 809 812 811 814 817 817 819 820 822 825 825 827 828 829 833 835 835 837 838 840 841 841 842 843 844 845 846 847 848 848 849 850 851 853 854 855 856 857 857 858 859 859 860 860 861 861 861 861 861 861 861 861 861 860 860 859 859
782 786 790 794 796 798 800 803 806 807 803 798 797 800 801 799 798 799 804 805 806 807 808 815 807 789 797 814 812 812 815 813 815 815 814 819 820 821 823 823 825 827 830 832 833 834 836 837 839 840 839 840 841 842 843 844 846 847 847 849 850 851 853 853 855 856 856 857 858 858 859 859 860 860 860 860 860 860 860 860 859 859 858 858 857 856
778 783 787 794 798 800 802 801 801 803 802 798 797 803 803 798 801 808 810 811 810 802 801 810 800 783 794 811 811 811 812 811 813 815 815 817 818 819 821 822 824 827 829 830 831 832 834 835 837 836 836 838 838 840 841 842 844 845 846 848 849 850 852 853 854 855 855 856 857 858 858 858 858 859 859 859 859 858 858 857 857 856 856 855 854 853
774 778 781 788 793 794 794 794 794 794 797 800 800 802 803 800 801 803 803 808 810 802 798 800 791 784 794 802 802 806 808 807 812 816 816 816 817 818 819 820 823 825 825 826 828 830 832 832 833 833 834 835 836 838 839 840 842 844 845 847 848 850 851 852 853 854 854 856 856 856 857 857 857 857 857 857 857 856 855 855 855 854 853 853 852 851
775 778 777 777 778 778 776 780 786 787 789 793 794 793 798 801 800 799 801 804 804 803 798 789 785 788 791 791 796 801 802 803 809 814 815 814 814 816 818 819 821 821 822 824 826 828 829 829 829 830 831 833 834 835 836 838 840 841 843 845 846 848 849 850 852 852 853 854 854 855 855 855 856 856 856 855 854 854 853 853 853 852 852 851 850 849
775 778 775 773 773 773 774 777 784 785 781 783 786 787 792 799 801 801 801 797 795 802 797 783 786 792 787 788 795 794 795 802 808 811 811 811 812 815 817 819 819 819 821 823 824 825 825 825 826 827 829 830 832 833 834 836 838 839 841 842 844 846 847 849 850 850 851 852 852 853 853 854 854 854 853 853 852 852 851 851 851 850 849 849 848 847
773 773 773 776 777 776 779 783 784 782 780 781 783 782 784 794 800 799 797 792 791 794 786 780 788 791 785 788 792 791 795 800 802 805 809 809 811 813 815 816 816 816 818 819 821 821 821 822 823 824 826 828 830 831 832 834 835 837 839 840 842 844 844 846 847 848 849 850 850 851 852 852 852 851 851 850 849 849 849 848 848 847 847 846 845 844
772 771 772 776 777 776 781 788 788 785 786 786 784 782 783 790 794 794 793 793 793 791 785 787 795 793 787 789 791 792 800 802 800 805 809 808 809 810 811 812 812 813 815 816 817 818 819 820 821 822 823 825 826 828 829 831 832 834 836 837 839 841 842 844 845 845 847 847 848 849 849 850 850 849 848 848 847 847 846 846 845 845 844 843 842 842
775 776 777 778 780 778 781 791 795 792 792 790 784 785 790 792 795 799 800 798 799 798 795 798 802 795 789 792 796 797 800 801 800 802 804 806 807 807 808 809 809 811 813 814 815 816 818 818 819 820 821 821 822 824 825 828 829 831 833 835 836 838 839 841 842 843 844 845 846 847 847 847 847 846 846 845 844 844 844 843 843 842 842 841 840 839
777 783 786 786 783 777 782 795 797 796 801 798 787 788 794 791 790 796 799 795 794 793 795 800 800 793 788 793 799 798 798 800 801 800 802 804 806 807 807 806 808 810 811 812 813 814 815 816 817 817 818 818 819 821 823 825 827 829 830 832 833 835 837 838 839 840 841 842 843 844 844 845 844 844 843 842 842 842 841 841 841 840 839 839 838 837
780 782 784 787 782 777 790 802 799 799 801 788 772 776 787 788 786 790 792 790 788 789 791 793 789 786 789 794 796 795 796 800 801 800 801 801 803 806 806 805 807 808 808 809 811 812 812 813 814 814 815 816 817 819 820 822 825 826 827 829 831 832 834 835 836 837 838 840 841 841 842 841 841 841 840 840 840 839 839 839 838 838 837 836 836 835
781 778 778 780 777 785 805 812 804 798 784 763 756 764 772 778 782 785 784 782 784 786 786 785 785 787 792 793 791 790 793 797 798 798 799 801 801 802 803 805 806 806 807 808 809 810 811 811 812 813 813 814 815 817 819 821 822 824 825 827 829 830 831 832 833 835 836 837 838 838 839 838 838 838 838 838 838 837 837 837 836 836 835 834 834 833
778 779 781 782 785 801 817 815 801 786 769 765 773 775 771 772 775 778 779 778 783 786 785 786 789 788 787 787 788 790 793 796 799 799 800 801 801 801 802 803 804 804 805 807 807 808 808 809 810 811 811 812 814 816 818 819 821 822 824 825 826 828 829 830 831 832 833 834 835 835 835 835 836 836 836 836 836 836 835 835 834 833 833 832 831 830
772 777 782 788 797 808 814 804 784 771 771 782 789 785 780 779 779 782 783 779 780 784 787 789 789 785 784 786 790 794 797 799 800 799 799 800 800 801 801 800 801 803 803 803 804 805 805 806 807 808 810 811 813 815 816 817 819 820 822 823 824 825 826 827 828 829 830 831 832 832 833 833 833 834 834 834 834 833 833 832 831 831 830 829 828 827
770 773 778 783 787 792 798 793 777 770 772 773 775 777 776 773 772 776 778 773 772 779 786 788 786 782 783 787 791 796 800 800 797 794 795 797 797 799 800 799 800 801 801 801 802 803 804 805 806 807 809 810 811 813 814 815 817 818 820 821 822 823 824 825 825 826 827 828 829 830 830 831 832 832 832 832 831 831 830 829 829 828 827 826 825 824
773 771 771 773 774 779 787 788 783 779 767 752 755 766 769 768 768 769 772 772 770 775 781 782 779 779 782 788 794 798 799 796 792 789 790 793 795 797 799 799 799 799 799 800 801 802 803 804 805 806 808 809 810 811 812 814 815 816 817 818 819 820 821 822 822 823 824 825 826 828 828 829 829 829 829 829 828 827 827 826 826 825 825 824 822 821
779 777 773 771 773 777 780 777 774 770 757 746 755 768 775 775 769 769 780 780 770 772 779 778 775 777 781 787 794 796 795 794 790 787 788 791 793 795 796 797 797 798 798 799 799 800 801 802 804 805 806 807 809 810 811 812 813 814 815 815 817 818 818 819 820 821 822 823 825 826 826 826 827 826 826 826 825 825 824 824 823 823 822 821 820 818
781 780 778 776 772 772 775 775 769 762 756 757 766 775 780 776 768 775 787 779 767 772 780 776 773 775 780 789 795 793 790 788 785 784 787 790 791 793 794 794 795 795 796 797 798 799 800 801 802 803 804 805 807 807 809 810 810 811 812 813 814 815 815 816 817 819 820 822 822 823 824 824 824 824 824 823 822 822 821 821 820 820 819 818 817 816
785 784 782 777 772 769 770 771 769 763 761 767 774 777 778 776 775 778 776 766 764 774 781 776 771 774 782 790 792 788 783 782 782 783 787 789 789 790 791 791 792 793 794 795 796 797 799 800 800 801 802 803 804 805 806 807 808 809 810 811 812 812 812 814 815 817 818 819 820 821 821 821 821 821 821 820 819 819 819 818 818 817 816 816 814 813
781 783 783 778 774 773 770 770 772 765 758 765 776 780 777 774 773 769 764 763 765 769 778 779 773 776 784 786 785 783 779 780 784 785 786 788 787 787 789 789 790 791 792 793 795 796 797 798 798 799 800 800 802 802 803 804 805 806 807 808 808 809 810 812 813 814 816 817 817 818 818 819 818 818 818 817 817 816 816 816 816 815 814 813 812 811
763 772 778 774 770 776 778 777 775 763 753 760 772 778 774 768 762 759 761 768 769 766 773 778 776 778 783 782 782 783 780 781 785 785 785 787 787 786 787 787 788 789 790 791 792 793 794 795 795 796 797 798 799 799 800 801 802 803 804 804 805 807 809 810 811 812 813 814 815 815 816 816 816 815 815 815 814 814 813 813 814 813 812 811 810 808
753 761 768 763 761 771 775 768 759 752 751 756 760 762 762 758 757 756 757 764 770 771 771 771 773 778 780 776 778 781 781 782 783 782 784 786 785 786 786 785 786 787 787 788 789 790 791 792 792 793 794 795 796 797 797 798 799 800 801 802 803 805 806 807 809 810 811 812 812 813 813 813 813 813 813 812 812 811 811 811 811 810 810 809 808 806
747 753 755 750 752 760 759 752 750 753 757 757 752 751 753 754 757 759 756 758 764 770 771 769 768 773 777 776 776 778 779 780 779 779 782 782 782 783 784 783 784 784 784 785 786 787 789 789 789 790 791 791 793 794 795 796 797 798 799 800 802 803 804 805 807 807 809 810 810 810 810 810 810 810 810 810 810 809 809 808 808 807 807 807 806 805
752 758 756 751 751 751 749 751 754 757 759 757 753 752 754 755 759 760 758 757 759 763 768 767 764 767 773 775 776 776 776 776 776 777 779 780 780 781 781 781 782 781 782 783 783 784 785 785 787 788 788 789 790 791 792 793 794 795 796 798 799 801 802 804 805 805 807 807 807 808 807 807 808 808 808 808 807 807 806 806 806 805 805 804 804 803
755 759 756 752 749 745 746 752 754 753 755 756 754 754 755 757 759 759 758 758 758 761 764 764 763 766 771 773 773 772 771 772 774 775 776 777 778 778 778 779 779 778 778 779 779 780 782 783 784 784 784 785 786 787 789 790 791 793 795 796 797 799 800 801 802 803 804 804 805 805 805 805 805 805 805 805 805 805 805 804 804 803 802 802 801 800
748 753 755 753 750 747 749 756 757 755 756 756 754 754 754 753 755 758 758 758 759 761 762 763 764 767 769 770 771 769 768 770 772 772 773 774 774 774 775 775 775 774 775 775 776 777 779 779 780 780 780 781 782 784 786 787 789 790 792 793 795 796 798 799 800 801 801 802 802 802 802 802 802 802 802 803 803 802 802 802 802 801 799 800 799 798
745 749 750 750 751 750 752 758 760 757 756 755 755 755 754 751 753 756 758 758 760 761 762 763 764 765 765 766 767 768 767 767 768 769 770 770 770 771 771 771 771 771 771 772 773 774 775 775 776 776 776 777 778 781 782 784 786 787 788 790 792 793 795 796 796 797 798 798 799 799 799 799 799 799 800 800 800 800 799 799 799 798 796 797 797 796
746 744 745 749 749 747 748 751 752 749 748 748 749 749 749 750 753 755 755 757 758 758 759 761 761 762 763 763 763 766 766 764 764 766 767 767 766 766 766 767 768 768 768 769 770 771 771 771 772 772 773 774 776 778 779 780 783 784 785 787 788 790 792 792 793 794 795 795 796 796 796 797 797 797 797 797 796 796 796 796 797 796 794 794 794 794
739 734 736 740 739 738 740 744 744 743 741 741 742 744 746 748 751 752 752 752 753 754 756 758 758 758 760 760 760 762 762 760 760 762 763 763 762 762 762 763 764 764 764 765 766 767 767 767 768 769 770 771 772 774 775 777 779 781 782 784 785 787 788 789 790 791 791 792 793 793 794 794 794 795 795 794 794 793 792 791 792 793 794 793 791 791